Tracking 31080 objects as of 20-Jul-2025
HD Live streaming from Space Station
objects crossing your sky now

DODECAPOLE 2 DEB

Track DODECAPOLE 2 DEB now!
10-day predictions


NORAD ID: 41734
Int'l Code: 2016-051D
Perigee: 817.6 km
Apogee: 867.4 km
Inclination: 90.0 °
Period: 101.6 minutes
Semi major axis: 7213 km
RCS: Unknown
Launch date: August 15, 2016
Source: United States (US)
Launch site: Jiuquan Satellite Launch Center, China (JSC)

Note: This is SATELLITE DEBRIS
Your satellite tracking list
Your tracking list is empty




NASA's NSSDC Master Catalog

Two Line Element Set (TLE):
1 41734U 65065U   25201.47853976  .00004090  00000-0  20171-2 0  9996
2 41734  90.0419  21.2006 0034505 111.1445 249.3437 14.17047809489261
Source of the keplerian elements: AFSPC